DW0826 Weather Reports


time (UTC)temp
C
wind
direction
speed
KPH
gust
KPH
rain 1hr
cm
rain 24hr
cm
rain mn
cm
humidity
%
barometer
mb
20260902053025 11 0.0 0.0 0.00 0.00 0.00 64 1020.6
20260902050026 11 0.0 0.0 0.00 0.00 0.00 63 1020.5
20260902043026 12 0.0 0.0 0.00 0.00 0.00 62 1020.3
20260902040047 12 0.0 0.0 0.00 0.00 0.00 60 1019.6
20260902033025 12 0.0 0.0 0.00 0.00 0.00 59 1019.1
20260902030025 13 0.0 0.0 0.00 0.00 0.00 57 1019.5
20260902023026 14 0.0 0.0 0.00 0.00 0.00 55 1019.0
20260902020025 15 0.0 0.0 0.00 0.00 0.00 54 1018.9
20260902013027 15 0.0 3.2 0.00 0.00 0.00 51 1019.1
20260902010027 16 135 1.6 17.7 0.00 0.00 0.00 48 1019.4
20260902003047 16 113 1.6 12.9 0.00 0.00 0.00 47 1019.8
20260902000027 17 90 1.6 20.9 0.00 0.00 0.00 46 1019.6
20260901233027 18 90 1.6 16.1 0.00 0.00 0.00 46 1020.1
20260901230027 17 135 1.6 25.7 0.00 0.00 0.00 44 1020.5
20260901223027 18 113 3.2 25.7 0.00 0.00 0.00 44 1020.5
20260901220027 19 90 3.2 20.9 0.00 0.00 0.00 42 1020.9
20260901213026 18 90 4.8 20.9 0.00 0.00 0.00 44 1021.1
20260901210027 19 90 6.4 25.7 0.00 0.00 0.00 44 1021.0
20260901203027 19 113 6.4 24.1 0.00 0.00 0.00 44 1021.3
20260901200027 20 113 4.8 20.9 0.00 0.00 0.00 42 1021.5
20260901193028 18 90 6.4 22.5 0.00 0.00 0.00 43 1021.3
20260901190026 18 90 4.8 19.3 0.00 0.00 0.00 42 1021.2
20260901183026 19 135 4.8 19.3 0.00 0.00 0.00 43 1021.2
20260901180047 18 135 3.2 24.1 0.00 0.00 0.00 43 1020.7
20260901173028 18 90 1.6 19.3 0.00 0.00 0.00 45 1020.5
20260901170026 17 0.0 1.6 0.00 0.00 0.00 48 1020.2
20260901163027 17 0.0 1.6 0.00 0.00 0.00 50 1019.9
20260901160026 17 0.0 3.2 0.00 0.00 0.00 49 1019.7
20260901153026 16 0.0 1.6 0.00 0.00 0.00 50 1019.6
20260901150026 15 0.0 1.6 0.00 0.00 0.00 51 1019.3
20260901143026 15 0.0 0.0 0.00 0.00 0.00 53 1019.0
20260901140027 13 0.0 0.0 0.00 0.00 0.00 58 1018.2
20260901133047 13 0.0 0.0 0.00 0.00 0.00 59 1018.1
20260901130026 13 0.0 0.0 0.00 0.00 0.00 57 1018.5
20260901123047 14 0.0 0.0 0.00 0.00 0.00 57 1018.7
20260901120026 15 0.0 0.0 0.00 0.00 0.00 53 1019.4
20260901113047 15 0.0 0.0 0.00 0.00 0.00 51 1019.2
20260901110047 16 0.0 0.0 0.00 0.00 0.00 52 1019.2
20260901103026 16 0.0 0.0 0.00 0.00 0.00 50 1019.6
20260901100207 16 0.0 0.0 0.00 0.00 0.00 49 1019.8
20260901093025 16 0.0 0.0 0.00 0.00 0.00 50 1019.8
20260901090026 16 0.0 0.0 0.00 0.00 0.00 49 1020.0
20260901083026 16 0.0 0.0 0.00 0.00 0.00 48 1020.1
20260901080047 17 0.0 0.0 0.00 0.00 0.00 48 1020.3
20260901073026 17 0.0 0.0 0.00 0.00 0.00 48 1020.0
20260901070046 17 0.0 0.0 0.00 0.00 0.00 48 1020.2
20260901063045 17 0.0 0.0 0.00 0.00 0.00 49 1020.1
20260901060106 16 0.0 0.0 0.00 0.00 0.00 50 1019.7